[[{"header":{"parameterUnit":"m.s-1","parameterCategory":1,"la1":30.2992,"la2":30.254,"lo1":-89.0895,"lo2":-89.0443,"dy":0.0025,"dx":0.0025,"nx":19,"ny":19,"refTime":"2026-05-13T03:00:00:Z","depth":0,"parameterNumber":2,"parameterNumberName":"U-component_of_WINDS"},"data":[0,0,0,0.2524,0.2524,0.2538,0.2538,0.2547,0.2547,0,0,0,0,0,0,0,0,0,0,0,0.2515,0.2515,0.2523,0.2524,0.2538,0.2538,0.2547,0.2547,0,0,0,0,0,0,0,0,0,0,0,0.2515,0.2515,0.2515,0.2524,0.2538,0.2538,0.2547,0.254,0,0,0,0,0,0,0,0,0,0,0.2527,0.2515,0.2515,0.2515,0.2524,0.2538,0.2538,0.2539,0.254,0.2538,0,0.2535,0,0.2541,0.2548,0.2548,0,0,0,0.2527,0.2514,0.2522,0.2515,0.2524,0.2538,0.2532,0.254,0.2541,0.2539,0.2535,0.2535,0.2541,0.2548,0.2548,0.2524,0.2524,0,0,0.2526,0.2515,0.2522,0.2523,0.2521,0.2532,0.2533,0.254,0.2535,0.2535,0.2536,0.2542,0.2548,0.2548,0.2525,0.2524,0,0,0,0.2522,0.2514,0.2522,0.2522,0.2525,0.2532,0.2533,0.2535,0.2539,0.2536,0.2542,0.2548,0.2548,0.2525,0.2525,0.25,0,0,0,0.2521,0.2511,0.2521,0.2514,0.2525,0.253,0.2527,0.2538,0.254,0.2542,0.2548,0.2548,0.2525,0.2525,0.2501,0.2489,0,0,0,0.2515,0.2511,0.2511,0.2514,0.252,0.2531,0.2535,0.2539,0.2543,0.2548,0.2548,0.2525,0.2525,0.2502,0.2491,0.2479,0,0,0,0.2505,0.2489,0.2511,0.2495,0.2519,0.2516,0.2535,0.2533,0.2534,0.2548,0.2525,0.2525,0.2503,0.2493,0.2481,0.2466,0.2459,0,0,0.2478,0.2485,0.2477,0.2497,0.2486,0.2515,0.2501,0.2513,0.2524,0.2523,0.2523,0.2501,0.2492,0.248,0.2428,0.2423,0,0,0,0.2464,0.2458,0.2458,0.2459,0.2468,0.2475,0.2491,0.2495,0.2496,0.2521,0.2494,0.2489,0.2483,0.2476,0.2471,0.2466,0.2522,0.2522,0.2522,0.2407,0.2423,0.241,0.2428,0.2429,0.2446,0.2448,0.2457,0.2472,0.2466,0.2465,0.2432,0.2424,0.242,0.2415,0.246,0.246,0.246,0.246,0.2367,0.236,0.2382,0.2377,0.2394,0.239,0.2407,0.2418,0.2416,0.2434,0.2428,0.2444,0.2414,0.241,0.2458,0.2458,0.2458,0.2459,0.2459,0.233,0.2329,0.2336,0.234,0.2342,0.2361,0.2358,0.2374,0.2389,0.2384,0.2385,0.2385,0.2386,0.2384,0.2384,0.2384,0.2384,0.2384,0.2384,0.2287,0.2296,0.2293,0.2303,0.2306,0.2312,0.2331,0.2334,0.2342,0.2354,0.2354,0.2369,0.2409,0.2418,0.2382,0.2382,0.2382,0.2382,0.2383,0.2237,0.2252,0.2246,0.2249,0.2263,0.2263,0.2285,0.2291,0.2296,0.2294,0.2312,0.2339,0.2347,0.2351,0.2358,0.2309,0.2309,0.2309,0.2309,0.2204,0.2211,0.2209,0.2213,0.222,0.2239,0.2232,0.2247,0.2264,0.2268,0.2278,0.229,0.2293,0.2299,0.2304,0.2311,0.2251,0.2251,0.225,0.2174,0.2182,0.2172,0.2191,0.2203,0.2213,0.2206,0.221,0.2233,0.2248,0.2271,0.2274,0.2293,0.2299,0.2312,0.2319,0.2332,0,0]},{"header":{"parameterUnit":"m.s-1","parameterCategory":1,"la1":30.2992,"la2":30.254,"lo1":-89.0895,"lo2":-89.0443,"dy":0.0025,"dx":0.0025,"nx":19,"ny":19,"refTime":"2026-05-13T03:00:00:Z","depth":0,"parameterNumber":3,"parameterNumberName":"V-component_of_WINDS"},"data":[0,0,0,-3.5978,-3.5981,-3.6137,-3.6138,-3.6322,-3.6324,0,0,0,0,0,0,0,0,0,0,0,-3.5925,-3.5926,-3.5978,-3.5982,-3.6137,-3.6138,-3.6322,-3.6324,0,0,0,0,0,0,0,0,0,0,0,-3.5925,-3.5926,-3.5928,-3.5982,-3.6137,-3.6138,-3.6322,-3.6209,0,0,0,0,0,0,0,0,0,0,-3.606,-3.6005,-3.5926,-3.5928,-3.5983,-3.6137,-3.6138,-3.6204,-3.6216,-3.6246,0,-3.6274,0,-3.6302,-3.6336,-3.6336,0,0,0,-3.5985,-3.5995,-3.6043,-3.5928,-3.5984,-3.6137,-3.6068,-3.6211,-3.6224,-3.6263,-3.6277,-3.6284,-3.6305,-3.6337,-3.6338,-3.651,-3.651,0,0,-3.5977,-3.5949,-3.6034,-3.6052,-3.603,-3.6063,-3.6073,-3.6219,-3.6232,-3.6278,-3.6289,-3.6308,-3.6338,-3.6339,-3.6509,-3.651,0,0,0,-3.5949,-3.5943,-3.5988,-3.6044,-3.6074,-3.6067,-3.6079,-3.6225,-3.6243,-3.6291,-3.6311,-3.6339,-3.6341,-3.6508,-3.6509,-3.6516,0,0,0,-3.5944,-3.5927,-3.5984,-3.5968,-3.6071,-3.6152,-3.6081,-3.6232,-3.625,-3.631,-3.6339,-3.6343,-3.6508,-3.6509,-3.6515,-3.6524,0,0,0,-3.5917,-3.5924,-3.5945,-3.5967,-3.6033,-3.615,-3.6176,-3.6237,-3.6262,-3.6336,-3.6343,-3.6507,-3.6509,-3.6513,-3.6522,-3.6564,0,0,0,-3.5879,-3.5945,-3.5944,-3.6026,-3.6032,-3.6154,-3.6175,-3.6267,-3.6332,-3.634,-3.6508,-3.6509,-3.6513,-3.652,-3.6562,-3.6595,-3.6606,0,0,-3.5947,-3.5952,-3.6003,-3.6006,-3.6123,-3.6132,-3.6249,-3.6332,-3.6362,-3.6458,-3.6462,-3.6515,-3.6522,-3.6563,-3.6674,-3.6683,0,0,0,-3.6015,-3.6051,-3.6087,-3.615,-3.6218,-3.6277,-3.6346,-3.6377,-3.6461,-3.6407,-3.6542,-3.6546,-3.6571,-3.6589,-3.6596,-3.662,-3.6516,-3.6515,-3.6515,-3.607,-3.611,-3.6196,-3.6254,-3.6314,-3.6386,-3.6438,-3.6492,-3.651,-3.6541,-3.657,-3.6634,-3.6653,-3.6658,-3.6683,-3.659,-3.659,-3.659,-3.659,-3.6175,-3.6233,-3.6259,-3.6353,-3.6393,-3.647,-3.6542,-3.6553,-3.663,-3.6614,-3.6638,-3.6619,-3.6667,-3.6691,-3.6591,-3.659,-3.659,-3.659,-3.659,-3.6217,-3.6252,-3.6291,-3.6388,-3.6458,-3.6513,-3.6588,-3.6619,-3.6649,-3.6673,-3.6709,-3.6709,-3.6715,-3.6688,-3.6688,-3.6689,-3.6689,-3.6689,-3.6689,-3.6246,-3.6291,-3.6352,-3.6432,-3.6478,-3.6542,-3.6616,-3.6661,-3.6719,-3.6736,-3.6737,-3.6753,-3.6664,-3.6642,-3.6693,-3.6692,-3.6692,-3.6691,-3.6691,-3.634,-3.6325,-3.6419,-3.6466,-3.6563,-3.6631,-3.6672,-3.6762,-3.6803,-3.6839,-3.685,-3.6779,-3.6786,-3.678,-3.6763,-3.6841,-3.6841,-3.6841,-3.6841,-3.6377,-3.6385,-3.649,-3.6563,-3.6637,-3.6685,-3.6789,-3.6847,-3.6905,-3.6933,-3.6926,-3.6904,-3.6897,-3.6908,-3.69,-3.6884,-3.6991,-3.6992,-3.6992,-3.6438,-3.6455,-3.6539,-3.6599,-3.6678,-3.6745,-3.6845,-3.6925,-3.6986,-3.6998,-3.6956,-3.695,-3.6915,-3.6902,-3.6914,-3.69,-3.6872,0,0]}]]